Location: Cahas Mountain Overlook
(37.0833°N, 80.1000°W)
Time: 19:14:59
(UTC-04:00)

Explorer 7 - Pass Details

Date: 16 February 2026
Orbit: 430 x 541 km, 50.2° (Epoch: 13 March)

Event Time Altitude Azimuth Distance (km) Brightness Sun altitude
Rises 18:38:57 0° 306° (NW) 2,501 10.9 -8.1°
Reaches altitude 10° 18:42:37 10° 344° (NNW) 1,659 9.4 -8.9°
Maximum altitude 18:43:42 11° 1° (N) 1,609 9.1 -9.1°
Drops below altitude 10° 18:44:47 10° 17° (NNE) 1,680 9.0 -9.3°
Enters shadow 18:46:35 - 39° (NE) 2,018 9.3 -9.6°
Sets 18:48:36 0° 55° (NE) 2,600 - -10.0°
